Location: Bismarck
(46.7731°N, 100.8200°W)
Time: 02:59:39
(UTC-06:00)

Amateur Radio Satellites - All Passes

Search period start: 25 February 2017 02:29
Search period end: 26 February 2017 02:29
Location: Bismarck, 46.7731°N, 100.8200°W

Satellite Date Start Highest point End Downlink Frequencies (MHz)
Time Altitude Azimuth
RS-15 25 Feb 02:34:59 02:47:28 82° 52° (NE) 02:59:25 29.354- 29.394
AO-7 25 Feb 02:47:33 02:52:36 17° 87° (E) 02:57:35 .
Oscar 19 25 Feb 02:48:45 02:53:49 63° 289° (WNW) 02:58:52 437.125/150
KKS-1 25 Feb 02:52:37 02:55:08 15° 59° (ENE) 02:57:40 437.445
CUBESAT XI-V 25 Feb 03:16:20 03:19:12 16° 60° (ENE) 03:22:04 437.345
ITAMSAT 1 25 Feb 03:21:40 03:26:17 31° 95° (E) 03:30:53 435.822/435.867
ITUPSAT 1 25 Feb 03:22:13 03:26:39 36° 263° (W) 03:31:05 437.325
STARS 25 Feb 03:27:42 03:30:18 16° 60° (ENE) 03:32:56 437.465
BEESAT 25 Feb 03:29:21 03:33:34 31° 264° (W) 03:37:49 436.000
Gurwin Techsat 1B 25 Feb 03:30:19 03:35:28 50° 291° (WNW) 03:40:34 435.225
PCSat 25 Feb 03:39:09 03:41:42 13° 257° (WSW) 03:44:14 145.827
MOZHAYETS 4 25 Feb 03:53:17 03:57:45 46° 261° (W) 04:02:14
M-CUBED/EXP-1 PRIME 25 Feb 04:02:45 04:05:20 22° 61° (ENE) 04:07:56 437.505
KKS-1 25 Feb 04:26:45 04:31:09 71° 257° (WSW) 04:35:37 437.445
Oscar 19 25 Feb 04:31:09 04:32:08 11° 308° (NW) 04:33:08 437.125/150
AO-7 25 Feb 04:38:21 04:46:43 77° 107° (ESE) 04:55:00 .
SO-50 25 Feb 04:42:30 04:43:34 11° 18° (NNE) 04:44:39 436.795
RS-15 25 Feb 04:48:27 04:58:43 34° 256° (WSW) 05:08:40 29.354- 29.394
CUBESAT XI-V 25 Feb 04:51:24 04:56:03 69° 258° (WSW) 05:00:43 437.345
ITAMSAT 1 25 Feb 05:00:58 05:05:50 40° 294° (WNW) 05:10:41 435.822/435.867
STARS 25 Feb 05:01:49 05:06:09 66° 257° (WSW) 05:10:33 437.465
AO-85 25 Feb 05:15:29 05:19:58 72° 125° (SE) 05:24:10 145.980
M-CUBED/EXP-1 PRIME 25 Feb 05:37:06 05:39:47 23° 258° (WSW) 05:42:29 437.505
CUTE-I 25 Feb 06:06:59 06:11:08 22° 92° (E) 06:15:14 437.470
SO-50 25 Feb 06:21:23 06:25:28 32° 41° (NE) 06:29:30 436.795
KAITUO 1B 25 Feb 06:23:18 06:26:23 23° 94° (E) 06:29:25 145.475/437.950
XW-2F 25 Feb 06:27:21 06:30:46 30° 96° (E) 06:34:09 145.980 - 146.000
XW-2D 25 Feb 06:31:43 06:35:18 36° 97° (E) 06:38:49 145.860 - 145.880
AO-7 25 Feb 06:31:53 06:38:47 30° 309° (NW) 06:45:39 .
BEESAT 3 25 Feb 06:35:47 06:39:13 30° 117° (ESE) 06:42:43 437.485
XW-2B 25 Feb 06:36:43 06:40:21 39° 98° (E) 06:43:57 145.730 - 145.750
DOVE 4 25 Feb 06:44:20 06:48:57 58° 100° (E) 06:53:49 437.250
XW-2C 25 Feb 06:45:17 06:49:03 51° 100° (E) 06:52:45 145.795 - 145.815
STRAND 1 25 Feb 06:46:33 06:51:34 57° 70° (ENE) 06:56:38 437.568
AO-85 25 Feb 06:57:33 07:00:47 20° 323° (NW) 07:03:53 145.980
NUDT-PHONESAT 25 Feb 06:58:05 07:01:50 59° 101° (E) 07:05:32 437.300
LilacSat-2 25 Feb 07:01:48 07:05:41 84° 102° (ESE) 07:09:31 437.200
O/OREOS (USA 219) 25 Feb 07:08:54 07:10:42 12° 42° (NE) 07:12:30 437.305
BEESAT 2 25 Feb 07:13:24 07:16:55 32° 118° (ESE) 07:20:31 435.950
CUTE 1.7 + AOD 2 25 Feb 07:24:58 07:27:53 18° 91° (E) 07:30:46 437.475
HO-68 25 Feb 07:27:17 07:33:17 28° 93° (E) 07:39:14 435.675
CUBEBUG 2 25 Feb 07:41:15 07:43:53 15° 88° (E) 07:46:32 437.445
CUTE-I 25 Feb 07:46:15 07:51:32 58° 290° (WNW) 07:56:48 437.470
PRISM 25 Feb 07:48:52 07:50:04 11° 58° (ENE) 07:51:16 437.425
KAITUO 1B 25 Feb 07:57:07 08:00:25 29° 292° (WNW) 08:03:41 145.475/437.950
XW-2F 25 Feb 08:01:44 08:04:47 23° 294° (WNW) 08:07:48 145.980 - 146.000
SO-50 25 Feb 08:01:47 08:06:02 41° 241° (WSW) 08:10:13 436.795
XW-2D 25 Feb 08:06:26 08:09:16 20° 295° (WNW) 08:12:05 145.860 - 145.880
FO-29 25 Feb 08:10:40 08:14:06 14° 44° (NE) 08:17:35 435.910
XW-2B 25 Feb 08:11:36 08:14:17 18° 296° (WNW) 08:16:57 145.730 - 145.750
AAUSAT CUBESAT 2 25 Feb 08:12:26 08:15:24 19° 92° (E) 08:18:21 437.432
BEESAT 3 25 Feb 08:13:13 08:16:47 32° 316° (NW) 08:20:25 437.485
XW-2A 25 Feb 08:14:20 08:17:50 86° 284° (WNW) 08:21:17 145.665 - 145.685
UWE-3 25 Feb 08:18:24 08:21:58 21° 91° (E) 08:25:29 435.000/436.395/437.385
XW-2C 25 Feb 08:20:35 08:22:51 15° 297° (WNW) 08:25:05 145.795 - 145.815
SEEDS 25 Feb 08:21:51 08:25:54 46° 99° (E) 08:29:54 437.485
DOVE 4 25 Feb 08:22:58 08:26:18 20° 297° (WNW) 08:29:44 437.250
STRAND 1 25 Feb 08:27:16 08:31:07 21° 268° (W) 08:34:59 437.568
ISS 25 Feb 08:32:26 08:35:16 26° 140° (SE) 08:38:05 437.550
NUDT-PHONESAT 25 Feb 08:33:30 08:35:18 13° 298° (WNW) 08:37:06 437.300
LilacSat-2 25 Feb 08:38:50 08:39:20 10° 301° (WNW) 08:39:49 437.200
ZACube-1 25 Feb 08:39:56 08:43:23 21° 91° (E) 08:46:47 437.345
O/OREOS (USA 219) 25 Feb 08:46:25 08:51:00 70° 63° (ENE) 08:55:35 437.305
BEESAT 2 25 Feb 08:51:05 08:54:41 32° 317° (NW) 08:58:20 435.950
Tancredo 1 25 Feb 08:58:09 09:01:16 43° 145° (SE) 09:04:23 437.200
CUTE 1.7 + AOD 2 25 Feb 08:59:55 09:03:59 46° 289° (WNW) 09:08:00 437.475
HO-68 25 Feb 09:14:26 09:21:30 65° 292° (WNW) 09:28:32 435.675
CUBEBUG 2 25 Feb 09:16:15 09:21:01 72° 286° (WNW) 09:25:44 437.445
PRISM 25 Feb 09:20:38 09:24:43 86° 256° (WSW) 09:28:49 437.425
AO-73 25 Feb 09:27:48 09:32:18 56° 100° (E) 09:36:42 145.935
UNISAT 6 25 Feb 09:28:14 09:32:33 47° 71° (ENE) 09:37:01 437.425
TIGRISAT 25 Feb 09:28:37 09:32:55 44° 70° (ENE) 09:37:19 435.000
CUTE-I 25 Feb 09:29:35 09:30:29 10° 309° (NW) 09:31:23 437.470
Oscar 11 25 Feb 09:34:46 09:39:03 56° 100° (E) 09:43:17 .
YUBILEINY 25 Feb 09:45:28 09:52:31 28° 80° (E) 09:59:32 435.215
DELFI C3 25 Feb 09:46:08 09:49:20 24° 94° (E) 09:52:31 145.870
AAUSAT CUBESAT 2 25 Feb 09:47:10 09:51:04 41° 289° (WNW) 09:54:55 437.432
FO-29 25 Feb 09:50:20 09:57:17 51° 65° (ENE) 10:04:45 435.910
UWE-3 25 Feb 09:54:09 09:58:40 48° 289° (WNW) 10:03:06 435.000/436.395/437.385
SEEDS 25 Feb 09:58:19 10:01:16 19° 297° (WNW) 10:04:12 437.485
ISS 25 Feb 10:08:15 10:11:32 63° 338° (NNW) 10:14:49 437.550
ZACube-1 25 Feb 10:15:30 10:19:54 46° 289° (WNW) 10:24:13 437.345
DUCHIFAT 1 25 Feb 10:20:20 10:22:40 15° 60° (ENE) 10:25:00 145.980
O/OREOS (USA 219) 25 Feb 10:27:22 10:29:50 14° 261° (W) 10:32:18 437.305
EO-79 25 Feb 10:30:03 10:33:13 21° 64° (ENE) 10:36:25 145.935-145.965
Tancredo 1 25 Feb 10:34:24 10:37:34 45° 345° (NNW) 10:40:43 437.200
AIST 2D 25 Feb 10:43:13 10:46:31 36° 71° (ENE) 10:49:50 435.315
NANOSAT C BR1 25 Feb 10:46:35 10:50:09 27° 66° (ENE) 10:53:46 145.865
POLYITAN 1 25 Feb 10:46:53 10:50:36 30° 67° (ENE) 10:54:21 437.675
QB50P2 25 Feb 10:49:43 10:53:32 34° 68° (ENE) 10:57:25 145.880/145.840
CUBEBUG 2 25 Feb 10:55:29 10:56:46 11° 304° (NW) 10:58:03 437.445
HO-68 25 Feb 11:03:55 11:07:55 16° 314° (NW) 11:11:55 435.675
AO-73 25 Feb 11:04:56 11:08:07 19° 298° (WNW) 11:11:16 145.935
UNISAT 6 25 Feb 11:06:08 11:09:32 21° 269° (W) 11:13:00 437.425
TIGRISAT 25 Feb 11:06:19 11:09:49 22° 268° (W) 11:13:24 435.000
Oscar 11 25 Feb 11:11:56 11:14:46 17° 298° (WNW) 11:17:36 .
BUGSAT 1 25 Feb 11:16:51 11:19:47 19° 63° (ENE) 11:22:45 437.445
DELFI C3 25 Feb 11:20:42 11:24:10 30° 291° (WNW) 11:27:37 145.870
ESTCUBE 1 25 Feb 11:33:03 11:36:51 26° 94° (E) 11:40:37 437.505/2401.250
FO-29 25 Feb 11:35:44 11:42:25 40° 266° (W) 11:49:39 435.910
YUBILEINY 25 Feb 11:39:43 11:48:31 72° 282° (WNW) 11:57:20 435.215
ISS 25 Feb 11:45:20 11:48:22 33° 358° (N) 11:51:25 437.550
DUCHIFAT 1 25 Feb 11:53:39 11:57:50 67° 258° (WSW) 12:02:04 145.980
VELOX 1 25 Feb 11:59:06 12:01:59 17° 91° (E) 12:04:53 145.980
LO-87 25 Feb 12:03:46 12:07:21 67° 285° (WNW) 12:10:56 145.935 - 145.965
AO-85 25 Feb 12:04:23 12:07:25 21° 38° (NE) 12:10:26 145.980
AO-7 25 Feb 12:04:25 12:06:04 11° 30° (NNE) 12:07:42 .
EO-79 25 Feb 12:04:42 12:08:43 43° 261° (W) 12:12:47 145.935-145.965
SPROUT 25 Feb 12:07:11 12:10:01 17° 91° (E) 12:12:51 437.525
Tancredo 1 25 Feb 12:11:17 12:14:18 33° 5° (N) 12:17:17 437.200
AIST 2D 25 Feb 12:17:35 12:19:54 16° 268° (W) 12:22:14 435.315
NANOSAT C BR1 25 Feb 12:22:02 12:25:48 31° 264° (W) 12:29:35 145.865
POLYITAN 1 25 Feb 12:22:40 12:26:22 28° 265° (W) 12:30:06 437.675
QB50P2 25 Feb 12:25:53 12:29:23 25° 266° (W) 12:32:56 145.880/145.840
Oscar 19 25 Feb 12:29:43 12:34:24 37° 66° (ENE) 12:39:07 437.125/150
50 SAT 25 Feb 12:32:47 12:35:35 22° 95° (E) 12:38:20 437.505
BUGSAT 1 25 Feb 12:50:59 12:54:51 43° 261° (W) 12:58:49 437.445
ITAMSAT 1 25 Feb 13:07:35 13:08:54 11° 52° (NE) 13:10:14 435.822/435.867
ESTCUBE 1 25 Feb 13:09:38 13:13:44 35° 292° (WNW) 13:17:46 437.505/2401.250
BEESAT 3 25 Feb 13:13:26 13:14:51 12° 27° (NNE) 13:16:16 437.485
Gurwin Techsat 1B 25 Feb 13:14:32 13:19:40 52° 69° (ENE) 13:24:50 435.225
ISS 25 Feb 13:22:01 13:25:15 53° 18° (NNE) 13:28:29 437.550
DX 1 25 Feb 13:25:43 13:30:02 57° 101° (E) 13:34:19 434.975-435.025
VELOX 1 25 Feb 13:34:28 13:38:47 54° 288° (WNW) 13:43:05 145.980
UKube-1 25 Feb 13:37:43 13:41:59 55° 101° (E) 13:46:13 .
YUBILEINY 25 Feb 13:41:29 13:47:08 18° 306° (NW) 13:52:48 435.215
SPROUT 25 Feb 13:42:03 13:46:15 52° 288° (WNW) 13:50:26 437.525
AO-85 25 Feb 13:44:16 13:48:07 56° 237° (WSW) 13:51:58 145.980
Tancredo 1 25 Feb 13:47:39 13:50:53 75° 24° (NNE) 13:54:06 437.200
AO-7 25 Feb 13:49:04 13:56:22 35° 54° (NE) 14:03:40 .
BEESAT 2 25 Feb 13:51:41 13:53:18 12° 27° (NNE) 13:54:56 435.950
50 SAT 25 Feb 14:05:46 14:08:40 25° 292° (WNW) 14:11:35 437.505
Oscar 19 25 Feb 14:09:10 14:13:45 32° 264° (W) 14:18:22 437.125/150
ITAMSAT 1 25 Feb 14:42:13 14:47:21 63° 71° (ENE) 14:52:32 435.822/435.867
BEESAT 3 25 Feb 14:49:29 14:53:24 49° 48° (NE) 14:57:19 437.485
Gurwin Techsat 1B 25 Feb 14:55:41 14:59:55 24° 267° (W) 15:04:10 435.225
ISS 25 Feb 14:58:37 15:01:38 33° 217° (SW) 15:04:38 437.550
DX 1 25 Feb 15:02:56 15:05:48 18° 299° (WNW) 15:08:41 434.975-435.025
UKube-1 25 Feb 15:14:44 15:17:37 18° 299° (WNW) 15:20:30 .
ITUPSAT 1 25 Feb 15:19:14 15:23:53 46° 99° (E) 15:28:28 437.325
Tancredo 1 25 Feb 15:24:25 15:26:52 20° 222° (SW) 15:29:18 437.200
BEESAT 25 Feb 15:25:41 15:30:24 54° 101° (E) 15:35:04 436.000
BEESAT 2 25 Feb 15:28:02 15:32:01 51° 48° (NE) 15:35:58 435.950
AO-7 25 Feb 15:40:22 15:48:40 66° 255° (WSW) 15:57:01 .
MOZHAYETS 4 25 Feb 15:45:19 15:49:30 33° 96° (E) 15:53:39
KKS-1 25 Feb 16:15:34 16:18:38 18° 92° (E) 16:21:42 437.445
ITAMSAT 1 25 Feb 16:23:34 16:27:16 19° 269° (W) 16:30:59 435.822/435.867
BEESAT 3 25 Feb 16:27:46 16:30:43 20° 247° (WSW) 16:33:40 437.485
PCSat 25 Feb 16:37:58 16:43:10 50° 116° (ESE) 16:48:25 145.827
CUBESAT XI-V 25 Feb 16:45:29 16:49:11 24° 93° (E) 16:52:52 437.345
STARS 25 Feb 16:49:00 16:52:04 18° 92° (E) 16:55:08 437.465
ITUPSAT 1 25 Feb 16:57:35 17:01:27 24° 297° (WNW) 17:05:17 437.325
RS-15 25 Feb 17:01:58 17:12:32 39° 107° (ESE) 17:23:25 29.354- 29.394
BEESAT 25 Feb 17:04:14 17:07:49 21° 299° (WNW) 17:11:23 436.000
BEESAT 2 25 Feb 17:06:33 17:09:27 19° 247° (WSW) 17:12:21 435.950
KAITUO 1B 25 Feb 17:06:33 17:09:12 18° 64° (ENE) 17:11:51 145.475/437.950
XW-2F 25 Feb 17:11:11 17:14:17 23° 67° (ENE) 17:17:23 145.980 - 146.000
M-CUBED/EXP-1 PRIME 25 Feb 17:12:53 17:14:17 12° 97° (E) 17:15:42 437.505
XW-2D 25 Feb 17:15:45 17:19:03 27° 68° (ENE) 17:22:21 145.860 - 145.880
XW-2B 25 Feb 17:20:42 17:24:05 30° 69° (ENE) 17:27:29 145.730 - 145.750
MOZHAYETS 4 25 Feb 17:22:35 17:26:36 30° 294° (WNW) 17:30:34
XW-2C 25 Feb 17:29:08 17:32:42 37° 70° (ENE) 17:36:17 145.795 - 145.815
NO-84 25 Feb 17:29:26 17:32:23 33° 135° (SE) 17:35:36 435.350 FM
CUTE-I 25 Feb 17:31:18 17:36:22 47° 68° (ENE) 17:41:30 437.470
AO-7 25 Feb 17:39:15 17:43:03 14° 276° (W) 17:46:52 .
NUDT-PHONESAT 25 Feb 17:40:04 17:43:37 40° 71° (ENE) 17:47:11 437.300
LilacSat-2 25 Feb 17:45:58 17:49:48 60° 74° (ENE) 17:53:39 437.200
KKS-1 25 Feb 17:51:08 17:55:30 53° 289° (WNW) 17:59:52 437.445
DOVE 4 25 Feb 17:52:59 17:57:06 76° 76° (ENE) 18:01:20 437.250
HO-68 25 Feb 17:59:19 18:05:20 30° 57° (ENE) 18:11:21 435.675
CUTE 1.7 + AOD 2 25 Feb 18:20:24 18:23:29 20° 64° (ENE) 18:26:34 437.475
PCSat 25 Feb 18:21:55 18:26:47 33° 316° (NW) 18:31:42 145.827
CUBESAT XI-V 25 Feb 18:22:24 18:26:43 41° 291° (WNW) 18:31:01 437.345
STARS 25 Feb 18:24:24 18:28:43 51° 289° (WNW) 18:33:00 437.465
KAITUO 1B 25 Feb 18:39:20 18:42:57 40° 262° (W) 18:46:35 145.475/437.950
CUBEBUG 2 25 Feb 18:42:06 18:45:02 17° 61° (ENE) 18:48:02 437.445
XW-2F 25 Feb 18:44:53 18:48:19 30° 264° (W) 18:51:45 145.980 - 146.000
M-CUBED/EXP-1 PRIME 25 Feb 18:45:20 18:49:02 67° 291° (WNW) 18:53:02 437.505
XW-2A 25 Feb 18:48:17 18:51:33 47° 73° (ENE) 18:54:52 145.665 - 145.685
XW-2D 25 Feb 18:49:57 18:53:12 26° 265° (W) 18:56:29 145.860 - 145.880
XW-2B 25 Feb 18:55:10 18:58:18 23° 266° (W) 19:01:27 145.730 - 145.750
STRAND 1 25 Feb 18:55:27 18:58:25 15° 89° (E) 19:01:24 437.568
XW-2C 25 Feb 19:04:15 19:07:02 19° 268° (W) 19:09:50 145.795 - 145.815
AAUSAT CUBESAT 2 25 Feb 19:05:25 19:08:24 19° 64° (ENE) 19:11:23 437.432
NO-84 25 Feb 19:06:42 19:09:58 42° 336° (NNW) 19:13:34 435.350 FM
RS-15 25 Feb 19:12:07 19:24:12 75° 311° (NW) 19:36:41 29.354- 29.394
CUTE-I 25 Feb 19:12:09 19:16:38 27° 266° (W) 19:21:09 437.470
NUDT-PHONESAT 25 Feb 19:15:13 19:17:44 17° 268° (W) 19:20:16 437.300
SEEDS 25 Feb 19:15:54 19:19:56 46° 71° (ENE) 19:24:00 437.485
UWE-3 25 Feb 19:17:58 19:21:35 24° 64° (ENE) 19:25:16 435.000/436.395/437.385
LilacSat-2 25 Feb 19:22:52 19:24:28 12° 271° (W) 19:26:05 437.200
DOVE 4 25 Feb 19:34:39 19:35:26 10° 273° (W) 19:36:13 437.250
ZACube-1 25 Feb 19:38:16 19:41:50 24° 64° (ENE) 19:45:28 437.345
HO-68 25 Feb 19:45:28 19:52:35 66° 257° (WSW) 19:59:45 435.675
YUBILEINY 25 Feb 19:51:04 19:56:17 17° 52° (NE) 20:01:28 435.215
CUTE 1.7 + AOD 2 25 Feb 19:54:52 19:59:00 47° 261° (W) 20:03:09 437.475
PCSat 25 Feb 20:10:18 20:11:58 11° 340° (NNW) 20:13:38 145.827
CUBEBUG 2 25 Feb 20:16:44 20:21:08 63° 259° (W) 20:25:44 437.445
XW-2A 25 Feb 20:23:18 20:24:37 12° 270° (W) 20:25:57 145.665 - 145.685
AO-73 25 Feb 20:25:28 20:29:52 60° 72° (ENE) 20:34:22 145.935
Oscar 11 25 Feb 20:31:51 20:36:09 61° 73° (ENE) 20:40:28 .
STRAND 1 25 Feb 20:33:02 20:38:12 77° 286° (WNW) 20:43:20 437.568
DELFI C3 25 Feb 20:34:33 20:37:35 21° 65° (ENE) 20:40:36 145.870
AAUSAT CUBESAT 2 25 Feb 20:39:36 20:43:34 44° 261° (W) 20:47:35 437.432
NO-84 25 Feb 20:45:22 20:48:23 23° 358° (N) 20:51:36 435.350 FM
SEEDS 25 Feb 20:52:54 20:55:51 18° 268° (W) 20:58:50 437.485
UWE-3 25 Feb 20:53:33 20:57:47 42° 263° (W) 21:02:11 435.000/436.395/437.385
PRISM 25 Feb 21:02:04 21:02:26 10° 88° (E) 21:02:47 437.425
ZACube-1 25 Feb 21:13:37 21:17:52 42° 262° (W) 21:22:13 437.345
RS-15 25 Feb 21:28:02 21:39:10 38° 341° (NNW) 21:50:25 29.354- 29.394
HO-68 25 Feb 21:39:09 21:41:42 12° 276° (W) 21:44:14 435.675
YUBILEINY 25 Feb 21:46:21 21:55:05 68° 77° (ENE) 22:03:43 435.215
AO-73 25 Feb 22:03:43 22:06:31 16° 271° (W) 22:09:20 145.935
DELFI C3 25 Feb 22:08:31 22:12:11 36° 263° (W) 22:15:51 145.870
Oscar 11 25 Feb 22:10:12 22:12:41 15° 271° (W) 22:15:11 .
STRAND 1 25 Feb 22:14:14 22:16:31 13° 306° (NW) 22:18:48 437.568
SO-50 25 Feb 22:18:26 22:22:33 31° 117° (ESE) 22:26:37 436.795
NO-84 25 Feb 22:23:22 22:26:54 33° 19° (NNE) 22:30:41 435.350 FM
PRISM 25 Feb 22:34:10 22:38:15 79° 285° (WNW) 22:42:20 437.425
ESTCUBE 1 25 Feb 22:35:04 22:39:09 35° 68° (ENE) 22:43:14 437.505/2401.250
FO-29 25 Feb 22:42:12 22:49:10 36° 92° (E) 22:55:32 435.910
LO-87 25 Feb 22:42:21 22:45:52 73° 75° (ENE) 22:49:25 145.935 - 145.965
UNISAT 6 25 Feb 22:53:16 22:57:59 71° 102° (ESE) 23:02:38 437.425
TIGRISAT 25 Feb 22:53:24 22:58:08 67° 102° (ESE) 23:02:45 435.000
VELOX 1 25 Feb 22:58:57 23:02:20 22° 64° (ENE) 23:05:44 145.980
O/OREOS (USA 219) 25 Feb 23:01:36 23:05:52 45° 108° (ESE) 23:10:10 437.305
SPROUT 25 Feb 23:03:23 23:06:25 19° 63° (ENE) 23:09:29 437.525
50 SAT 25 Feb 23:10:16 23:12:23 15° 64° (ENE) 23:14:30 437.505
DUCHIFAT 1 25 Feb 23:35:46 23:38:27 16° 91° (E) 23:41:06 145.980
AIST 2D 25 Feb 23:38:43 23:41:55 30° 96° (E) 23:45:04 435.315
PCSat 25 Feb 23:40:07 23:43:56 19° 33° (NNE) 23:47:45 145.827
YUBILEINY 25 Feb 23:44:01 23:51:11 30° 279° (W) 23:58:20 435.215
RS-15 25 Feb 23:44:52 23:56:02 36° 16° (NNE) 00:07:01 29.354- 29.394
EO-79 25 Feb 23:46:34 23:50:06 24° 94° (E) 23:53:37 145.935-145.965
SO-50 25 Feb 23:58:29 00:02:54 41° 315° (NW) 00:07:18 436.795
NO-84 26 Feb 00:00:51 00:04:54 77° 217° (SW) 00:09:13 435.350 FM
NANOSAT C BR1 26 Feb 00:02:57 00:06:51 33° 96° (E) 00:10:42 145.865
POLYITAN 1 26 Feb 00:03:58 00:07:58 36° 97° (E) 00:11:56 437.675
QB50P2 26 Feb 00:06:53 00:10:59 42° 98° (E) 00:15:03 145.880/145.840
ESTCUBE 1 26 Feb 00:12:09 00:16:00 27° 265° (W) 00:19:52 437.505/2401.250
DX 1 26 Feb 00:23:41 00:27:58 71° 74° (ENE) 00:32:18 434.975-435.025
FO-29 26 Feb 00:26:58 00:34:27 55° 293° (WNW) 00:41:18 435.910
BUGSAT 1 26 Feb 00:30:00 00:33:18 21° 93° (E) 00:36:35 437.445
UNISAT 6 26 Feb 00:31:13 00:34:09 16° 300° (WNW) 00:37:02 437.425
TIGRISAT 26 Feb 00:31:13 00:34:17 17° 300° (WNW) 00:37:20 435.000
VELOX 1 26 Feb 00:34:23 00:38:33 42° 261° (W) 00:42:44 145.980
UKube-1 26 Feb 00:34:36 00:38:52 67° 72° (ENE) 00:43:09 .
SPROUT 26 Feb 00:37:54 00:42:01 47° 261° (W) 00:46:10 437.525
O/OREOS (USA 219) 26 Feb 00:41:50 00:45:29 24° 308° (NW) 00:49:11 437.305
50 SAT 26 Feb 00:41:53 00:45:12 40° 261° (W) 00:48:32 437.505
ITUPSAT 1 26 Feb 00:54:45 00:56:17 11° 54° (NE) 00:57:50 437.325
BEESAT 26 Feb 01:00:13 01:02:22 13° 56° (NE) 01:04:32 436.000
DUCHIFAT 1 26 Feb 01:10:16 01:14:26 54° 288° (WNW) 01:18:36 145.980
AIST 2D 26 Feb 01:12:17 01:14:59 20° 293° (WNW) 01:17:39 435.315
EO-79 26 Feb 01:22:01 01:25:57 35° 292° (WNW) 01:29:51 145.935-145.965
PCSat 26 Feb 01:22:48 01:28:17 75° 56° (NE) 01:33:42 145.827
Gurwin Techsat 1B 26 Feb 01:28:55 01:32:11 16° 89° (E) 01:35:26 435.225
NANOSAT C BR1 26 Feb 01:38:51 01:42:28 27° 294° (WNW) 01:46:02 145.865
NO-84 26 Feb 01:39:46 01:42:08 15° 233° (SW) 01:44:34 435.350 FM
POLYITAN 1 26 Feb 01:40:05 01:43:35 25° 295° (WNW) 01:47:04 437.675
SO-50 26 Feb 01:42:34 01:44:35 13° 338° (NNW) 01:46:35 436.795
QB50P2 26 Feb 01:43:14 01:46:32 22° 296° (WNW) 01:49:49 145.880/145.840
RS-15 26 Feb 01:58:49 02:11:15 70° 47° (NE) 02:23:10 29.354- 29.394
DX 1 26 Feb 02:02:46 02:04:40 13° 271° (W) 02:06:34 434.975-435.025
BUGSAT 1 26 Feb 02:04:50 02:08:48 40° 291° (WNW) 02:12:46 437.445
UKube-1 26 Feb 02:13:17 02:15:21 13° 271° (W) 02:17:26 .
FO-29 26 Feb 02:13:56 02:17:44 15° 315° (NW) 02:21:25 435.910
Oscar 19 26 Feb 02:16:53 02:22:02 71° 103° (ESE) 02:27:07 437.125/150
